Location: Unspecified
(0.0000°N, 0.0000°E)
Time: 17:41:27
(UTC+02:00)

Cosmos 2228 - Visible Passes

Search period start: 24 May 2016 00:00
Search period end: 03 June 2016 00:00
Orbit: 592 x 620 km, 82.5° (Epoch: 24 May)

Date Brightness Start Highest point End Pass type
(mag) Time Alt. Az. Time Alt. Az. Time Alt. Az.
31 May 5.3 21:38:26 10° NNE 21:39:02 13° NNE 21:39:02 13° NNE visible
01 Jun 4.7 21:51:02 10° N 21:52:50 24° NNE 21:52:50 24° NNE visible
02 Jun 4.4 22:04:09 10° N 22:06:40 34° NNW 22:06:40 34° NNW visible
